Printer-friendly version

IAU Minor Planet Center

Minor Planet Center

MPEC 2007-O06 : 2007 LV

The following Minor Planet Electronic Circular may be linked-to from your own Web pages, but must not otherwise be redistributed electronically.


Read MPEC 2007-O05 Read MPEC 2007-O07


M.P.E.C. 2007-O06                                Issued 2007 July 18, 00:48 UT

     The Minor Planet Electronic Circulars contain information on unusual
         minor planets and routine data on comets.  They are published
   on behalf of Commission 20 of the International Astronomical Union by the
          Minor Planet Center, Smithsonian Astrophysical Observatory,
                          Cambridge, MA 02138, U.S.A.

             Prepared using the Tamkin Foundation Computer Network

                              MPC@CFA.HARVARD.EDU
          URL http://www.cfa.harvard.edu/iau/mpc.html  ISSN 1523-6714

                                    2007 LV

                           Revision to MPEC 2007-L41

Additional Observations:
     K07L00V  C2002 04 10.32640 13 43 19.01 +17 25 40.2          20.7 R EO006644
     K07L00V  C2002 04 10.34785 13 43 17.02 +17 25 44.7          20.4 R EO006644
     K07L00V  C2002 04 10.36940 13 43 15.10 +17 25 50.2          20.5 R EO006644
     K07L00V  C2002 04 21.28063 13 26 40.01 +17 43 11.9          20.6 R EO006644
     K07L00V  C2002 04 21.32309 13 26 35.95 +17 43 09.5          20.2 R EO006644
     K07L00V  C2002 05 04.24632 13 08 14.34 +16 55 15.7          19.9 R EO006644
     K07L00V  C2002 05 04.26712 13 08 12.66 +16 55 07.7                 EO006644
     K07L00V  C2002 05 05.23345 13 06 59.76 +16 48 37.4          20.0 R EO006644
     K07L00V  C2002 05 05.25451 13 06 58.15 +16 48 29.2          19.8 R EO006644
     K07L00V  C2002 05 05.27551 13 06 56.55 +16 48 20.5          20.2 R EO006644
     K07L00V  C2002 05 13.16688 12 58 10.65 +15 41 33.1          20.8 R EO006644
     K07L00V  C2002 05 13.19030 12 58 09.26 +15 41 20.1          20.4 R EO006644
     K07L00V  C2002 05 13.21084 12 58 08.01 +15 41 07.7          20.4 R EO006644

Observer details:
644 Palomar Mountain/NEAT.  Observers E. F. Helin, S. Pravdo, K. Lawrence,
    K. Kuluhiwa, M. Hicks.  Measurer R. Matson.  1.2-m Schmidt + CCD.

Orbital elements:
2007 LV                                                  Earth MOID = 0.4067 AU
Epoch 2007 Apr. 10.0 TT = JDT 2454200.5                 MPC
M 299.49088              (2000.0)            P               Q
n   0.42110826     Peri.  261.89867     +0.84451644     +0.45928784
a   1.7628156      Node    70.38541     -0.29825005     +0.83049981
e   0.2707086      Incl.   16.99980     -0.44479085     +0.31515830
P   2.34           H   18.2           G   0.15           U   3
Residuals in seconds of arc
020410 644  0.1+  0.3+    070609 E12  0.3-  0.1+    070610 E12  0.2+  0.2+
020410 644  0.3-  0.2-    070609 E12  0.2-  0.4+    070610 E12  0.1+  0.1+
020410 644  0.5+  0.4+    070609 E12  0.6+  0.2+    070610 E12  0.4+  0.1-
020421 644  0.3+  0.2+    070609 E12  0.5-  0.2+    070610 E12  0.2+  0.3-
020421 644  0.5-  0.2-    070609 E12  0.3-  0.1-    070611 474  0.3+  0.2+
020504 644  0.1-  0.1-    070609 E12  0.1+  0.5+    070611 474  0.4+  0.8+
020504 644  0.5-  0.0     070609 E12  0.3+  0.0     070611 474  0.6-  0.3+
020505 644  0.2-  0.5-    070609 E12  0.0   0.9-    070614 E12  0.2-  0.2-
020505 644  0.1+  0.0     070609 E12  0.1+  0.1-    070615 E12  0.0   0.1+
020505 644  0.6+  0.1+    070610 673  0.2-  0.4+    070615 E12  0.0   0.1-
020513 644  0.3-  0.5-    070610 673  0.4+  0.1-    070623 E12  0.1-  0.0
020513 644  0.2+  0.3+    070610 673  0.6-  0.4-    070623 E12  0.1-  0.0
020513 644  0.2+  0.1+    070610 673  0.6-  0.1+    070716 474  0.0   0.2-
070609 E12  0.1+  0.8-    070610 474  0.2+  0.1+    070716 474  0.0   0.1+
070609 E12  0.1+  0.7-    070610 474  0.1+  0.1+    070716 474  0.0   0.0
070609 E12  0.1-  0.2+    070610 474  0.1+  0.0

Ephemeris:
2007 LV                  a,e,i = 1.76, 0.27, 17                  q = 1.2856
Date    TT    R. A. (2000) Decl.     Delta      r     Elong.  Phase     V
2007 07 09    21 46.79   -55 33.9    0.420    1.352   136.1    31.4    18.3
2007 07 19    22 11.17   -61 25.6    0.411    1.330   132.9    34.0    18.3
2007 07 29    22 34.25   -66 01.8    0.411    1.313   128.8    37.1    18.4
2007 08 08    22 53.23   -69 04.7    0.418    1.299   124.8    39.9    18.5
2007 08 18    23 05.10   -70 29.2    0.429    1.290   121.6    41.9    18.6
2007 08 28    23 09.65   -70 15.5    0.442    1.286   119.3    43.3    18.6
2007 09 07    23 09.65   -68 27.8    0.457    1.287   117.8    43.8    18.7
2007 09 17    23 08.89   -65 10.0    0.473    1.292   117.2    43.8    18.8
2007 09 27    23 10.22   -60 30.9    0.493    1.302   117.0    43.3    18.9
2007 10 07    23 14.38   -54 44.9    0.517    1.317   116.9    42.6    19.0
2007 10 17    23 21.28   -48 08.9    0.548    1.335   116.6    41.9    19.2
2007 10 27    23 30.54   -41 04.1    0.588    1.358   115.8    41.2    19.3
2007 11 06    23 41.63   -33 51.8    0.639    1.383   114.3    40.8    19.5
2007 11 16    23 54.21   -26 49.5    0.702    1.412   112.0    40.5    19.8
2007 11 26    00 08.06   -20 10.1    0.777    1.442   109.1    40.3    20.0
2007 12 06    00 22.91   -14 00.7    0.864    1.475   105.6    40.0    20.3
2007 12 16    00 38.67   -08 23.4    0.961    1.509   101.8    39.7    20.6
2007 12 26    00 55.25   -03 17.6    1.067    1.544    97.6    39.1    20.8
2008 01 05    01 12.55   +01 18.5    1.181    1.580    93.3    38.4    21.1
2008 01 15    01 30.57   +05 28.1    1.302    1.616    88.9    37.5    21.3
2008 01 25    01 49.25   +09 13.6    1.427    1.653    84.4    36.3    21.5
2008 02 04    02 08.56   +12 37.2    1.556    1.689    79.9    35.1    21.7
2008 02 14    02 28.52   +15 41.0    1.687    1.725    75.3    33.6    21.9

Gareth V. Williams           (C) Copyright 2007 MPC           M.P.E.C. 2007-O06

Read MPEC 2007-O05 Read MPEC 2007-O07


Our Web policy. Index to the CBAT/MPC/ICQ pages.


Valid HTML 4.01!